When you browse on this site, cookies collect data to enhance your experience and personalize the content and advertising you see.
Visit our Privacy Policy to learn more. By continuing to use the site, you agree to this use of cookies and data.
  • în România
  • Lista ţărilor
  • Pe 7 zile
  • Temperatura apei
  • Hartă satelitară
  • Meteo pe hartă
  • Widget-uri
  • user-avatar
    Intrare

    Meteo pe oră la Cyklady

    Astăzi, 24 Mai, Vineri

    Timp Temperatura Precipitaţii Vânt Presiune Umiditate
    00:00 +9°C° 0 mm 1 m/s 680 mmHg 84%
    01:00 +9°C° 0 mm 1 m/s 680 mmHg 84%
    02:00 +9°C° 0 mm 1 m/s 680 mmHg 84%
    03:00 +8°C° 0 mm 1 m/s 680 mmHg 84%
    04:00 +8°C° 0 mm 1 m/s 680 mmHg 85%
    05:00 +10°C° 0 mm 1 m/s 680 mmHg 78%
    06:00 +12°C° 0 mm 1 m/s 681 mmHg 72%
    07:00 +14°C° 0 mm 2 m/s 681 mmHg 66%
    08:00 +15°C° 0 mm 2 m/s 682 mmHg 59%
    09:00 +17°C° 0 mm 3 m/s 682 mmHg 52%
    10:00 +18°C° 0 mm 3 m/s 683 mmHg 46%
    11:00 +18°C° 0 mm 3 m/s 683 mmHg 47%
    12:00 +19°C° 0 mm 4 m/s 683 mmHg 47%
    13:00 +19°C° 0 mm 4 m/s 683 mmHg 48%
    14:00 +19°C° 0 mm 4 m/s 682 mmHg 52%
    15:00 +18°C° 0 mm 4 m/s 682 mmHg 55%
    16:00 +17°C° 0 mm 3 m/s 682 mmHg 59%
    17:00 +16°C° 0 mm 3 m/s 682 mmHg 68%
    18:00 +14°C° 0 mm 2 m/s 681 mmHg 77%
    19:00 +12°C° 0 mm 2 m/s 681 mmHg 86%
    20:00 +10°C° 0 mm 2 m/s 681 mmHg 90%
    21:00 +11°C° 0 mm 1 m/s 681 mmHg 93%
    22:00 +10°C° 0 mm 1 m/s 682 mmHg 96%
    23:00 +10°C° 0 mm 1 m/s 681 mmHg 96%

    Mâine, 25 Mai, Sâmbătă

    Timp Temperatura Precipitaţii Vânt Presiune Umiditate
    00:00 +10°C° 0 mm 1 m/s 681 mmHg 96%
    01:00 +9°C° 0 mm 1 m/s 681 mmHg 96%
    02:00 +9°C° 0 mm 1 m/s 681 mmHg 94%
    03:00 +9°C° 0 mm 1 m/s 681 mmHg 93%
    04:00 +9°C° 0 mm 1 m/s 681 mmHg 92%
    05:00 +11°C° 0 mm 1 m/s 682 mmHg 83%
    06:00 +13°C° 0 mm 1 m/s 682 mmHg 74%
    07:00 +15°C° 0 mm 1 m/s 683 mmHg 66%
    08:00 +17°C° 0 mm 2 m/s 684 mmHg 58%
    09:00 +19°C° 0 mm 2 m/s 684 mmHg 50%
    10:00 +20°C° 0 mm 2 m/s 685 mmHg 42%
    11:00 +21°C° 0 mm 3 m/s 685 mmHg 41%
    12:00 +22°C° 0 mm 3 m/s 685 mmHg 40%
    13:00 +22°C° 0 mm 3 m/s 685 mmHg 39%
    14:00 +21°C° 0 mm 3 m/s 685 mmHg 43%
    15:00 +21°C° 0 mm 3 m/s 684 mmHg 47%
    16:00 +20°C° 0 mm 3 m/s 684 mmHg 51%
    17:00 +18°C° 0 mm 2 m/s 683 mmHg 61%
    18:00 +16°C° 0 mm 2 m/s 683 mmHg 71%
    19:00 +13°C° 0 mm 1 m/s 683 mmHg 82%
    20:00 +13°C° 0 mm 1 m/s 683 mmHg 83%
    21:00 +12°C° 0 mm 1 m/s 683 mmHg 85%
    22:00 +12°C° 0 mm 2 m/s 683 mmHg 87%
    23:00 +12°C° 0 mm 1 m/s 683 mmHg 85%

    Poimâine, 26 Mai, Duminică

    Timp Temperatura Precipitaţii Vânt Presiune Umiditate
    00:00 +12°C° 0 mm 1 m/s 682 mmHg 83%
    01:00 +12°C° 0 mm 1 m/s 682 mmHg 81%
    02:00 +11°C° 0 mm 1 m/s 682 mmHg 79%
    03:00 +11°C° 0 mm 1 m/s 682 mmHg 77%
    04:00 +11°C° 0 mm 1 m/s 682 mmHg 75%
    05:00 +14°C° 0 mm 1 m/s 682 mmHg 67%
    06:00 +16°C° 0 mm 1 m/s 683 mmHg 58%
    07:00 +20°C° 0 mm 1 m/s 684 mmHg 50%
    08:00 +22°C° 0 mm 1 m/s 684 mmHg 43%
    09:00 +24°C° 0 mm 2 m/s 685 mmHg 36%
    10:00 +26°C° 0 mm 2 m/s 685 mmHg 30%
    11:00 +26°C° 0 mm 2 m/s 685 mmHg 32%
    12:00 +26°C° 0 mm 2 m/s 685 mmHg 34%
    13:00 +27°C° 0 mm 2 m/s 685 mmHg 36%
    14:00 +26°C° 0 mm 2 m/s 685 mmHg 39%
    15:00 +25°C° 0 mm 2 m/s 684 mmHg 43%
    16:00 +24°C° 0 mm 1 m/s 684 mmHg 47%
    17:00 +22°C° 0 mm 1 m/s 683 mmHg 53%
    18:00 +20°C° 0 mm 1 m/s 683 mmHg 59%
    19:00 +19°C° 0 mm 1 m/s 682 mmHg 65%
    20:00 +18°C° 0 mm 1 m/s 683 mmHg 65%
    21:00 +16°C° 0 mm 1 m/s 683 mmHg 65%
    22:00 +16°C° 0 mm 1 m/s 683 mmHg 65%
    23:00 +16°C° 0 mm 1 m/s 683 mmHg 63%

    27 Mai, Luni

    Timp Temperatura Precipitaţii Vânt Presiune Umiditate
    00:00 +16°C° 0 mm 1 m/s 682 mmHg 60%
    01:00 +15°C° 0 mm 1 m/s 682 mmHg 58%
    02:00 +15°C° 0 mm 2 m/s 682 mmHg 55%
    03:00 +15°C° 0 mm 2 m/s 682 mmHg 52%
    04:00 +15°C° 0 mm 2 m/s 681 mmHg 49%
    05:00 +16°C° 0 mm 2 m/s 682 mmHg 47%
    06:00 +18°C° 0 mm 2 m/s 682 mmHg 45%
    07:00 +20°C° 0 mm 1 m/s 682 mmHg 43%
    08:00 +22°C° 0 mm 1 m/s 683 mmHg 38%
    09:00 +25°C° 0 mm 1 m/s 684 mmHg 33%
    10:00 +27°C° 0 mm 1 m/s 684 mmHg 28%
    11:00 +27°C° 0 mm 2 m/s 684 mmHg 27%
    12:00 +28°C° 0 mm 2 m/s 684 mmHg 26%
    13:00 +28°C° 0 mm 2 m/s 684 mmHg 25%
    14:00 +28°C° 0 mm 3 m/s 683 mmHg 26%
    15:00 +27°C° 0 mm 3 m/s 683 mmHg 27%
    16:00 +27°C° 0 mm 3 m/s 683 mmHg 27%
    17:00 +24°C° 0 mm 3 m/s 682 mmHg 33%
    18:00 +21°C° 0 mm 2 m/s 682 mmHg 40%
    19:00 +18°C° 0 mm 2 m/s 682 mmHg 46%
    20:00 +18°C° 0 mm 1 m/s 682 mmHg 49%
    21:00 +16°C° 0 mm 1 m/s 682 mmHg 52%
    22:00 +15°C° 0 mm 1 m/s 682 mmHg 55%
    23:00 +15°C° 0 mm 1 m/s 681 mmHg 59%

    28 Mai, Marţi

    Timp Temperatura Precipitaţii Vânt Presiune Umiditate
    00:00 +14°C° 0 mm 1 m/s 681 mmHg 63%
    01:00 +12°C° 0 mm 0 m/s 681 mmHg 66%
    02:00 +13°C° 0 mm 1 m/s 680 mmHg 66%
    03:00 +13°C° 0 mm 1 m/s 680 mmHg 66%
    04:00 +12°C° 0 mm 1 m/s 680 mmHg 66%
    05:00 +14°C° 0 mm 1 m/s 681 mmHg 61%
    06:00 +16°C° 0 mm 1 m/s 681 mmHg 55%
    07:00 +19°C° 0 mm 1 m/s 682 mmHg 50%
    08:00 +19°C° 0 mm 2 m/s 682 mmHg 49%
    09:00 +20°C° 0 mm 2 m/s 683 mmHg 48%
    10:00 +21°C° 0 mm 3 m/s 683 mmHg 48%
    11:00 +21°C° 0 mm 3 m/s 683 mmHg 46%
    12:00 +21°C° 0 mm 3 m/s 683 mmHg 45%
    13:00 +22°C° 0 mm 3 m/s 683 mmHg 43%
    14:00 +21°C° 0 mm 3 m/s 683 mmHg 46%
    15:00 +20°C° 0 mm 3 m/s 683 mmHg 49%
    16:00 +19°C° 0 mm 2 m/s 682 mmHg 52%
    17:00 +17°C° 0 mm 2 m/s 682 mmHg 63%
    18:00 +15°C° 0 mm 1 m/s 682 mmHg 74%
    19:00 +13°C° 0 mm 1 m/s 682 mmHg 84%
    20:00 +13°C° 0 mm 1 m/s 682 mmHg 88%
    21:00 +12°C° 0 mm 1 m/s 682 mmHg 91%
    22:00 +10°C° 0 mm 0 m/s 682 mmHg 95%
    23:00 +10°C° 0 mm 0 m/s 682 mmHg 95%

    29 Mai, Miercuri

    Timp Temperatura Precipitaţii Vânt Presiune Umiditate
    00:00 +10°C° 0 mm 0 m/s 682 mmHg 94%
    01:00 +10°C° 0 mm 0 m/s 682 mmHg 94%
    02:00 +11°C° 0 mm 1 m/s 682 mmHg 94%
    03:00 +11°C° 0 mm 1 m/s 682 mmHg 94%
    04:00 +10°C° 0 mm 1 m/s 683 mmHg 94%
    05:00 +12°C° 0 mm 1 m/s 683 mmHg 86%
    06:00 +14°C° 0 mm 1 m/s 684 mmHg 78%
    07:00 +16°C° 0 mm 1 m/s 684 mmHg 70%
    08:00 +19°C° 0 mm 1 m/s 685 mmHg 62%
    09:00 +20°C° 0 mm 2 m/s 685 mmHg 54%
    10:00 +23°C° 0 mm 2 m/s 686 mmHg 46%
    11:00 +22°C° 0 mm 3 m/s 686 mmHg 45%
    12:00 +24°C° 0 mm 3 m/s 686 mmHg 44%
    13:00 +24°C° 0 mm 3 m/s 686 mmHg 43%
    14:00 +24°C° 0 mm 3 m/s 686 mmHg 45%
    15:00 +22°C° 0 mm 3 m/s 685 mmHg 47%
    16:00 +22°C° 0 mm 3 m/s 685 mmHg 49%
    17:00 +20°C° 0 mm 2 m/s 685 mmHg 59%
    18:00 +17°C° 0 mm 2 m/s 684 mmHg 69%
    19:00 +15°C° 0 mm 1 m/s 684 mmHg 78%
    20:00 +14°C° 0 mm 1 m/s 684 mmHg 79%
    21:00 +14°C° 0 mm 1 m/s 684 mmHg 80%
    22:00 +13°C° 0 mm 1 m/s 684 mmHg 81%
    23:00 +13°C° 0 mm 1 m/s 684 mmHg 77%
    Arată mai mult